This is the latest recevied weather packets stored in our database for station/object VK4HIT-13. If no packets are shown the sender has not sent any weather packets the latest 1 day(s).
| Time | Temp. | Humidity | Pressure | Rain* | Wind** | Luminosity | Snow |
|---|---|---|---|---|---|---|---|
| 1778034869 | 24.44° C | 70% | 1016.5 hPa | 0 mm | 1.34 m/s, 19° | - | - |
| 1778034569 | 24.44° C | 70% | 1016.5 hPa | 0 mm | 1.34 m/s, 24° | - | - |
| 1778034269 | 23.89° C | 71% | 1016.6 hPa | 0 mm | 0.89 m/s, 23° | - | - |
| 1778033969 | 23.89° C | 72% | 1016.6 hPa | 0 mm | 0.45 m/s, 30° | - | - |
| 1778033669 | 23.89° C | 71% | 1016.7 hPa | 0 mm | 0.89 m/s, 28° | - | - |
| 1778033369 | 23.33° C | 72% | 1016.9 hPa | 0 mm | 1.34 m/s, 29° | - | - |
| 1778033069 | 23.33° C | 72% | 1016.9 hPa | 0 mm | 1.34 m/s, 28° | - | - |
| 1778032769 | 23.33° C | 73% | 1017.1 hPa | 0 mm | 1.34 m/s, 28° | - | - |
| 1778032469 | 23.33° C | 73% | 1017.1 hPa | 0 mm | 1.34 m/s, 26° | - | - |
| 1778032169 | 23.33° C | 72% | 1017.3 hPa | 0 mm | 0.89 m/s, 29° | - | - |
| 1778031869 | 23.33° C | 73% | 1017.3 hPa | 0 mm | 1.34 m/s, 27° | - | - |
| 1778031569 | 23.33° C | 73% | 1017.3 hPa | 0 mm | 1.34 m/s, 22° | - | - |
| 1778031269 | 23.33° C | 73% | 1017.4 hPa | 0 mm | 1.34 m/s, 24° | - | - |
| 1778030969 | 23.89° C | 73% | 1017.5 hPa | 0 mm | 1.79 m/s, 24° | - | - |
| 1778030669 | 23.89° C | 72% | 1017.5 hPa | 0 mm | 1.79 m/s, 24° | - | - |
| 1778030369 | 23.89° C | 72% | 1017.6 hPa | 0 mm | 1.34 m/s, 25° | - | - |
| 1778030069 | 23.89° C | 71% | 1017.6 hPa | 0 mm | 1.79 m/s, 19° | - | - |
| 1778029769 | 23.89° C | 69% | 1017.7 hPa | 0 mm | 1.34 m/s, 28° | - | - |
| 1778029469 | 23.89° C | 70% | 1017.8 hPa | 0 mm | 1.79 m/s, 25° | - | - |
| 1778029169 | 23.89° C | 70% | 1017.8 hPa | 0 mm | 1.79 m/s, 22° | - | - |
| 1778028869 | 24.44° C | 69% | 1017.7 hPa | 0 mm | 1.79 m/s, 22° | - | - |
| 1778028569 | 23.89° C | 71% | 1017.8 hPa | 0 mm | 1.79 m/s, 25° | - | - |
| 1778028269 | 23.33° C | 71% | 1017.8 hPa | 0 mm | 1.79 m/s, 22° | - | - |
| 1778027969 | 23.33° C | 71% | 1017.9 hPa | 0 mm | 1.34 m/s, 29° | - | - |
| 1778027669 | 23.33° C | 72% | 1017.9 hPa | 0 mm | 1.34 m/s, 16° | - | - |
* Rain latest hour (hover to see other rain measurements)
** Current wind speed in m/s (hover to see current wind gust speed)